Time,TemperatureF,DewpointF,PressureIn,WindDirection,WindDirectionDegrees,WindSpeedMPH,WindSpeedGustMPH,Humidity,HourlyPrecipIn,Conditions,Clouds,dailyrainin,SoftwareType,DateUTC
2013-07-25 00:11:00,85.0,53.0,29.86,SSW,210,4.0,7.0,34,0.00,,,0.00,,2013-07-25 07:11:00,
2013-07-25 00:22:00,82.0,55.0,29.86,North,0,0.0,5.0,39,0.00,,,0.00,,2013-07-25 07:22:00,
2013-07-25 00:32:00,81.0,55.0,29.86,North,0,0.0,4.0,41,0.00,,,0.00,,2013-07-25 07:32:00,
2013-07-25 00:43:00,80.0,54.0,29.86,North,0,0.0,0.0,41,0.00,,,0.00,,2013-07-25 07:43:00,
2013-07-25 00:53:00,80.0,56.0,29.86,North,0,0.0,1.0,44,0.00,,,0.00,,2013-07-25 07:53:00,
2013-07-25 01:02:00,80.0,58.0,29.86,North,0,0.0,1.0,47,0.00,,,0.00,,2013-07-25 08:02:00,
2013-07-25 01:11:00,79.0,58.0,29.86,North,0,0.0,1.0,48,0.00,,,0.00,,2013-07-25 08:11:00,
2013-07-25 01:32:00,79.0,58.0,29.87,North,0,0.0,0.0,48,0.00,,,0.00,,2013-07-25 08:32:00,
2013-07-25 01:44:00,79.0,58.0,29.87,North,0,0.0,0.0,49,0.00,,,0.00,,2013-07-25 08:44:00,
2013-07-25 02:43:00,77.0,56.0,29.88,SW,217,4.0,5.0,49,0.00,,,0.00,,2013-07-25 09:43:00,
2013-07-25 02:52:00,77.0,56.0,29.88,North,0,0.0,5.0,48,0.00,,,0.00,,2013-07-25 09:52:00,
2013-07-25 03:02:00,77.0,56.0,29.88,SW,218,1.0,4.0,48,0.00,,,0.00,,2013-07-25 10:02:00,
2013-07-25 03:11:00,77.0,55.0,29.88,SSW,211,2.0,5.0,47,0.00,,,0.00,,2013-07-25 10:11:00,
2013-07-25 03:53:00,78.0,56.0,29.88,WSW,244,7.0,9.0,46,0.00,,,0.00,,2013-07-25 10:53:00,
2013-07-25 04:02:00,79.0,56.0,29.88,SW,234,7.0,9.0,45,0.00,,,0.00,,2013-07-25 11:02:00,
2013-07-25 04:32:00,79.0,56.0,29.88,SW,234,6.0,9.0,45,0.00,,,0.00,,2013-07-25 11:32:00,
2013-07-25 04:43:00,80.0,57.0,29.89,SW,235,6.0,9.0,45,0.00,,,0.00,,2013-07-25 11:43:00,
2013-07-25 05:02:00,79.0,56.0,29.89,SW,236,7.0,9.0,46,0.00,,,0.00,,2013-07-25 12:02:00,
2013-07-25 05:32:00,77.0,56.0,29.89,SW,233,5.0,7.0,48,0.00,,,0.00,,2013-07-25 12:32:00,
2013-07-25 05:44:00,78.0,57.0,29.89,SW,222,6.0,8.0,48,0.00,,,0.00,,2013-07-25 12:44:00,
2013-07-25 05:52:00,77.0,56.0,29.89,WSW,238,5.0,8.0,48,0.00,,,0.00,,2013-07-25 12:52:00,
2013-07-25 06:02:00,77.0,56.0,29.89,WSW,243,5.0,8.0,48,0.00,,,0.00,,2013-07-25 13:02:00,
2013-07-25 07:11:00,78.0,57.0,29.91,North,0,0.0,2.0,48,0.00,,,0.00,,2013-07-25 14:11:00,
2013-07-25 07:33:00,79.0,59.0,29.91,North,0,0.0,2.0,50,0.00,,,0.00,,2013-07-25 14:33:00,
2013-07-25 07:43:00,81.0,60.0,29.91,ESE,106,2.0,5.0,49,0.00,,,0.00,,2013-07-25 14:43:00,
2013-07-25 07:53:00,80.0,58.0,29.92,ESE,108,2.0,5.0,47,0.00,,,0.00,,2013-07-25 14:53:00,
2013-07-25 08:01:00,81.0,59.0,29.92,East,101,1.0,5.0,47,0.00,,,0.00,,2013-07-25 15:01:00,
2013-07-25 08:12:00,81.0,59.0,29.92,ESE,103,2.0,5.0,47,0.00,,,0.00,,2013-07-25 15:12:00,
2013-07-25 08:43:00,85.0,60.0,29.93,East,93,1.0,3.0,43,0.00,,,0.00,,2013-07-25 15:43:00,
2013-07-25 08:52:00,85.0,59.0,29.93,East,94,1.0,3.0,41,0.00,,,0.00,,2013-07-25 15:52:00,
2013-07-25 10:02:00,90.0,53.0,29.93,NW,310,1.0,4.0,29,0.00,,,0.00,,2013-07-25 17:02:00,
2013-07-25 10:43:00,92.0,54.0,29.92,NW,324,4.0,7.0,28,0.00,,,0.00,,2013-07-25 17:43:00,
2013-07-25 10:53:00,92.0,54.0,29.93,NW,310,4.0,7.0,28,0.00,,,0.00,,2013-07-25 17:53:00,
2013-07-25 11:01:00,92.0,53.0,29.93,WNW,291,4.0,9.0,27,0.00,,,0.00,,2013-07-25 18:01:00,
2013-07-25 11:33:00,93.0,54.0,29.93,WNW,282,4.0,6.0,27,0.00,,,0.00,,2013-07-25 18:33:00,
2013-07-25 11:42:00,94.0,55.0,29.93,NW,319,4.0,7.0,27,0.00,,,0.00,,2013-07-25 18:42:00,
2013-07-25 11:52:00,95.0,56.0,29.93,SSW,195,3.0,7.0,27,0.03,,,0.03,,2013-07-25 18:52:00,
2013-07-25 12:01:00,95.0,52.0,29.92,WNW,294,3.0,8.0,24,0.03,,,0.03,,2013-07-25 19:01:00,
2013-07-25 12:42:00,96.0,58.0,29.92,WNW,301,3.0,8.0,28,0.28,,,0.28,,2013-07-25 19:42:00,
2013-07-25 13:32:00,97.0,55.0,29.91,WNW,303,6.0,8.0,25,0.00,,,0.28,,2013-07-25 20:32:00,
2013-07-25 13:43:00,98.0,54.0,29.91,West,276,4.0,7.0,23,0.00,,,0.28,,2013-07-25 20:43:00,
2013-07-25 14:11:00,99.0,57.0,29.90,NW,305,3.0,9.0,25,0.00,,,0.28,,2013-07-25 21:11:00,
2013-07-25 14:32:00,99.0,55.0,29.90,West,279,6.0,9.0,23,0.00,,,0.28,,2013-07-25 21:32:00,
2013-07-25 15:01:00,100.0,57.0,29.89,North,355,4.0,7.0,24,0.00,,,0.28,,2013-07-25 22:01:00,
2013-07-25 15:22:00,100.0,54.0,29.89,NNE,13,4.0,8.0,22,0.00,,,0.28,,2013-07-25 22:22:00,
2013-07-25 15:32:00,100.0,54.0,29.88,North,349,2.0,8.0,22,0.00,,,0.28,,2013-07-25 22:32:00,
2013-07-25 16:43:00,101.0,54.0,29.86,NW,319,3.0,8.0,21,0.00,,,0.28,,2013-07-25 23:43:00,
2013-07-25 16:52:00,101.0,55.0,29.86,WNW,300,2.0,7.0,22,0.00,,,0.28,,2013-07-25 23:52:00,
2013-07-25 17:01:00,101.0,55.0,29.86,NNW,339,4.0,6.0,22,0.00,,,0.28,,2013-07-26 00:01:00,
2013-07-25 18:43:00,101.0,56.0,29.86,NNW,328,2.0,4.0,23,0.00,,,0.28,,2013-07-26 01:43:00,
2013-07-25 18:52:00,101.0,57.0,29.86,NW,320,1.0,4.0,24,0.00,,,0.28,,2013-07-26 01:52:00,
2013-07-25 19:02:00,101.0,56.0,29.86,NW,320,1.0,4.0,23,0.00,,,0.28,,2013-07-26 02:02:00,
2013-07-25 19:42:00,99.0,57.0,29.86,NW,315,1.0,4.0,25,0.00,,,0.28,,2013-07-26 02:42:00,
2013-07-25 21:42:00,88.0,54.0,29.90,SSW,209,5.0,8.0,32,0.00,,,0.28,,2013-07-26 04:42:00,
2013-07-25 21:53:00,88.0,54.0,29.91,SSW,208,6.0,9.0,32,0.00,,,0.28,,2013-07-26 04:53:00,
2013-07-25 22:02:00,88.0,54.0,29.91,SSW,212,5.0,9.0,32,0.00,,,0.28,,2013-07-26 05:02:00,
2013-07-25 22:32:00,88.0,54.0,29.91,SSW,210,6.0,8.0,31,0.00,,,0.28,,2013-07-26 05:32:00,
2013-07-25 22:52:00,88.0,53.0,29.92,SW,215,7.0,9.0,30,0.00,,,0.28,,2013-07-26 05:52:00,
2013-07-25 23:02:00,88.0,53.0,29.92,SSW,211,6.0,8.0,30,0.00,,,0.28,,2013-07-26 06:02:00,
2013-07-25 23:11:00,88.0,52.0,29.92,SW,214,6.0,9.0,29,0.00,,,0.28,,2013-07-26 06:11:00,
2013-07-25 23:33:00,88.0,53.0,29.92,SW,215,5.0,7.0,30,0.00,,,0.28,,2013-07-26 06:33:00,
2013-07-25 23:43:00,87.0,53.0,29.92,SW,216,5.0,9.0,31,0.00,,,0.28,,2013-07-26 06:43:00,
2013-07-25 23:52:00,87.0,53.0,29.92,SW,217,4.0,9.0,31,0.00,,,0.28,,2013-07-26 06:52:00,